[[{"header":{"parameterUnit":"m.s-1","parameterCategory":1,"la1":30.2991,"la2":30.254,"lo1":-89.0895,"lo2":-89.0444,"dy":0.0017,"dx":0.0017,"nx":28,"ny":28,"refTime":"2024-07-09T03:00:00:Z","depth":0,"parameterNumber":2,"parameterNumberName":"U-component_of_WINDS"},"data":[0,0,0,0,0,0,0,0,0,0,0,0,0,0,0,0,0,0,0,0,0,0,0,0,0,0,0,0,0,0,0,0,0,0,0,0,0,0,0,0,0,0,0,0,0,0,0,0,0,0,0,0,0,0,0,0,0,0,-2.6489,-2.6489,0,-2.6521,-2.6521,-2.6521,-2.652,-2.652,-2.652,-2.6519,-2.6554,-2.6555,-2.6556,0,0,0,0,0,0,0,0,0,0,0,0,0,-2.6428,-2.6429,-2.6489,-2.6489,-2.6489,-2.652,-2.6521,-2.6521,-2.6521,-2.652,-2.6519,-2.6519,-2.6553,-2.6555,-2.6556,0,0,0,0,0,0,0,0,0,0,0,0,0,-2.6457,-2.643,-2.6488,-2.6493,-2.6493,-2.652,-2.6521,-2.6521,-2.6521,-2.652,-2.6519,-2.6519,-2.6553,-2.6555,-2.6557,-2.6582,0,0,-2.6563,-2.6564,0,0,0,0,0,0,0,0,-2.6455,-2.6459,-2.6492,-2.6492,-2.6493,-2.6516,-2.6512,-2.6542,-2.6521,-2.651,-2.6519,-2.6518,-2.6542,-2.6545,-2.6552,-2.6584,-2.6585,-2.6563,-2.6564,-2.6565,-2.6566,0,0,0,0,0,0,0,-2.6453,-2.6458,-2.6501,-2.6492,-2.6493,-2.6493,-2.6497,-2.6518,-2.6529,-2.6511,-2.6511,-2.6515,-2.6542,-2.655,-2.6553,-2.6586,-2.6563,-2.6565,-2.6566,-2.6567,-2.6639,-2.664,0,0,0,0,0,0,-2.645,-2.6456,-2.65,-2.6502,-2.6472,-2.6495,-2.6499,-2.6509,-2.6529,-2.6532,-2.6515,-2.6515,-2.6547,-2.6551,-2.6554,-2.6584,-2.6565,-2.6567,-2.6568,-2.6639,-2.664,-2.664,0,0,0,0,0,0,-2.6449,-2.6454,-2.6499,-2.6479,-2.6485,-2.6497,-2.6509,-2.651,-2.6518,-2.6532,-2.6535,-2.6521,-2.6547,-2.6551,-2.6575,-2.6586,-2.6568,-2.657,-2.6638,-2.6639,-2.664,-2.6646,0,0,0,0,0,0,-2.6447,-2.6454,-2.6463,-2.6479,-2.6486,-2.6519,-2.6509,-2.6511,-2.6521,-2.6521,-2.6539,-2.6541,-2.6547,-2.6572,-2.6577,-2.6588,-2.6571,-2.6637,-2.6638,-2.664,-2.6645,-2.6647,-2.6649,0,0,0,0,0,-2.6445,-2.6464,-2.6464,-2.6469,-2.6498,-2.6519,-2.6523,-2.6529,-2.6522,-2.6532,-2.6541,-2.654,-2.6584,-2.6574,-2.658,-2.6592,-2.6636,-2.6638,-2.664,-2.6644,-2.6647,-2.6649,0,0,0,0,0,0,-2.645,-2.6466,-2.6466,-2.6491,-2.6503,-2.6519,-2.6531,-2.6532,-2.6547,-2.6546,-2.6553,-2.6557,-2.658,-2.6589,-2.6578,-2.6617,-2.6609,-2.6612,-2.6611,-2.6613,-2.6615,-2.6612,-2.6573,0,0,0,0,0,-2.6454,-2.6469,-2.6483,-2.6504,-2.651,-2.652,-2.6529,-2.6532,-2.6546,-2.6552,-2.6562,-2.6576,-2.6593,-2.6604,-2.662,-2.6646,-2.665,-2.6657,-2.6659,-2.6661,-2.6663,-2.6677,-2.668,-2.6646,-2.6646,-2.6646,0,0,-2.6462,-2.6473,-2.6482,-2.6505,-2.6515,-2.6531,-2.6524,-2.6542,-2.6554,-2.6555,-2.6577,-2.6585,-2.6601,-2.6626,-2.6638,-2.6634,-2.6674,-2.6663,-2.6664,-2.6666,-2.6679,-2.6682,-2.6685,-2.6647,-2.6647,-2.6647,0,0,-2.6484,-2.6495,-2.6512,-2.6522,-2.6538,-2.6544,-2.6548,-2.6564,-2.6569,-2.6592,-2.6592,-2.6607,-2.6636,-2.6647,-2.6657,-2.6683,-2.6683,-2.6689,-2.6699,-2.6713,-2.6715,-2.6718,-2.6726,-2.6729,-2.6691,-2.6691,-2.6691,0,-2.6493,-2.6516,-2.6522,-2.6539,-2.6548,-2.6549,-2.6567,-2.6577,-2.6597,-2.6604,-2.66,-2.6636,-2.6647,-2.6673,-2.668,-2.6688,-2.6693,-2.6686,-2.6714,-2.6717,-2.6719,-2.6727,-2.6731,-2.6692,-2.6691,-2.6691,-2.6691,0,-2.6525,-2.6542,-2.6554,-2.6572,-2.6584,-2.6601,-2.661,-2.6621,-2.6623,-2.663,-2.6653,-2.6666,-2.6684,-2.6691,-2.6694,-2.6718,-2.6715,-2.6713,-2.6705,-2.6723,-2.673,-2.6734,-2.6692,-2.6692,-2.6692,-2.6692,0,0,-2.6551,-2.6572,-2.6576,-2.6584,-2.6601,-2.6614,-2.6632,-2.6649,-2.6658,-2.6672,-2.6687,-2.6711,-2.6708,-2.6719,-2.6723,-2.6735,-2.6754,-2.6731,-2.6731,-2.6734,-2.6781,-2.6782,-2.6785,-2.6755,-2.6755,-2.6756,-2.6779,0,-2.6575,-2.6605,-2.661,-2.6637,-2.6652,-2.6653,-2.6668,-2.668,-2.6687,-2.6702,-2.671,-2.6726,-2.6722,-2.6728,-2.674,-2.6749,-2.6763,-2.6748,-2.6768,-2.6769,-2.6763,-2.6789,-2.6791,-2.6812,-2.6782,-2.6783,-2.6783,0,-2.6606,-2.662,-2.6647,-2.6661,-2.6668,-2.6681,-2.6697,-2.6711,-2.6725,-2.6729,-2.6741,-2.6744,-2.6762,-2.6754,-2.678,-2.6769,-2.6778,-2.6784,-2.6785,-2.6786,-2.6776,-2.679,-2.6819,-2.6822,-2.6788,-2.6788,-2.6787,0,-2.6621,-2.6646,-2.6666,-2.6673,-2.669,-2.6699,-2.6707,-2.6721,-2.673,-2.6745,-2.6751,-2.6768,-2.6777,-2.679,-2.6797,-2.6791,-2.6822,-2.6815,-2.6826,-2.6826,-2.6832,-2.6831,-2.6861,-2.6839,-2.6839,-2.6839,-2.6839,0,-2.6646,-2.6662,-2.6672,-2.6684,-2.6703,-2.6709,-2.6728,-2.6736,-2.6747,-2.6761,-2.6764,-2.6777,-2.6786,-2.6801,-2.6807,-2.6827,-2.6831,-2.6835,-2.6836,-2.6834,-2.6833,-2.6839,-2.6837,-2.684,-2.684,-2.684,-2.684,0,-2.6665,-2.6672,-2.6693,-2.6708,-2.6712,-2.6725,-2.6737,-2.6749,-2.6756,-2.6774,-2.6778,-2.6789,-2.6806,-2.6815,-2.6837,-2.6841,-2.6863,-2.6864,-2.6858,-2.6858,-2.6868,-2.6867,-2.6902,-2.6907,-2.6883,-2.6883,-2.6883,0,-2.6679,-2.6692,-2.6707,-2.6716,-2.6724,-2.6739,-2.6748,-2.6755,-2.6765,-2.6782,-2.6792,-2.6809,-2.6823,-2.685,-2.6861,-2.6877,-2.6878,-2.6889,-2.688,-2.6877,-2.6877,-2.6875,-2.6876,-2.689,-2.689,-2.6891,-2.6891,0,-2.6704,-2.6707,-2.6721,-2.6736,-2.6747,-2.6759,-2.6771,-2.6779,-2.6788,-2.6799,-2.6816,-2.6827,-2.6848,-2.6865,-2.6882,-2.6891,-2.6892,-2.6894,-2.6897,-2.6894,-2.6889,-2.6891,-2.6861,-2.6892,-2.6892,-2.6892,-2.6892,-2.6892,-2.6721,-2.6732,-2.6744,-2.6759,-2.6769,-2.678,-2.6791,-2.6799,-2.6813,-2.6831,-2.6834,-2.6852,-2.6866,-2.6889,-2.6898,-2.6912,-2.691,-2.6915,-2.6916,-2.6917,-2.6917,-2.6888,-2.6916,-2.6916,-2.6916,-2.6916,-2.6916,0,-2.6745,-2.6753,-2.6767,-2.6783,-2.6794,-2.6794,-2.6808,-2.6818,-2.6833,-2.6845,-2.6858,-2.6878,-2.6894,-2.6906,-2.6922,-2.6931,-2.6932,-2.6935,-2.6934,-2.6936,-2.6918,-2.6913,-2.6934,-2.6934,-2.6934,-2.6934,-2.6934,-2.6934,-2.6759,-2.6777,-2.6781,-2.6804,-2.6812,-2.6829,-2.6836,-2.6847,-2.6856,-2.6877,-2.689,-2.6898,-2.691,-2.6927,-2.6942,-2.6945,-2.6951,-2.6954,-2.6957,-2.694,-2.6937,-2.6936,-2.6931,-2.6955,-2.6955,-2.6973,-2.6973,-2.6973]},{"header":{"parameterUnit":"m.s-1","parameterCategory":1,"la1":30.2991,"la2":30.254,"lo1":-89.0895,"lo2":-89.0444,"dy":0.0017,"dx":0.0017,"nx":28,"ny":28,"refTime":"2024-07-09T03:00:00:Z","depth":0,"parameterNumber":3,"parameterNumberName":"V-component_of_WINDS"},"data":[0,0,0,0,0,0,0,0,0,0,0,0,0,0,0,0,0,0,0,0,0,0,0,0,0,0,0,0,0,0,0,0,0,0,0,0,0,0,0,0,0,0,0,0,0,0,0,0,0,0,0,0,0,0,0,0,0,0,5.3551,5.3549,0,5.3408,5.3406,5.3405,5.3215,5.3211,5.3208,5.3205,5.3055,5.3054,5.3053,0,0,0,0,0,0,0,0,0,0,0,0,0,5.3657,5.3656,5.3551,5.3549,5.3547,5.3408,5.3406,5.3404,5.3215,5.3211,5.3207,5.3204,5.3056,5.3054,5.3053,0,0,0,0,0,0,0,0,0,0,0,0,0,5.3573,5.3656,5.3551,5.3436,5.3425,5.3409,5.3406,5.3404,5.3216,5.3211,5.3206,5.3202,5.3056,5.3054,5.3053,5.3137,0,0,5.3048,5.3047,0,0,0,0,0,0,0,0,5.3578,5.3569,5.3455,5.3444,5.3431,5.3324,5.3388,5.3314,5.3217,5.3295,5.3205,5.32,5.3148,5.3139,5.3122,5.313,5.3123,5.3048,5.3047,5.3046,5.3046,0,0,0,0,0,0,0,5.3584,5.3574,5.3494,5.3453,5.3439,5.3391,5.3374,5.3373,5.325,5.3288,5.3274,5.326,5.3141,5.3124,5.3117,5.3121,5.3048,5.3046,5.3045,5.3045,5.319,5.3194,0,0,0,0,0,0,5.3607,5.358,5.3499,5.349,5.3494,5.3393,5.3374,5.3363,5.3249,5.3227,5.3264,5.3251,5.3129,5.3119,5.3111,5.3201,5.3046,5.3045,5.3044,5.3185,5.3191,5.3196,0,0,0,0,0,0,5.361,5.3602,5.3504,5.3531,5.3515,5.3396,5.3386,5.3363,5.3346,5.3231,5.3208,5.327,5.3125,5.3113,5.3132,5.3193,5.3044,5.3042,5.3179,5.3187,5.3193,5.3383,0,0,0,0,0,0,5.3614,5.3604,5.3635,5.3533,5.3514,5.3529,5.339,5.3363,5.3344,5.3327,5.323,5.321,5.3121,5.3135,5.313,5.3188,5.3041,5.3173,5.3183,5.3191,5.337,5.3395,5.3417,0,0,0,0,0,5.3618,5.3693,5.3638,5.3629,5.3551,5.3533,5.3522,5.3419,5.335,5.338,5.3306,5.3213,5.3188,5.3139,5.3132,5.319,5.3169,5.318,5.319,5.336,5.339,5.3416,0,0,0,0,0,0,5.3804,5.3678,5.3615,5.3659,5.3609,5.3501,5.3535,5.3455,5.3421,5.3406,5.3278,5.3258,5.3292,5.3243,5.3191,5.3265,5.3164,5.3174,5.3296,5.3324,5.3347,5.3357,5.304,0,0,0,0,0,5.3851,5.3847,5.3737,5.3787,5.3765,5.3656,5.3643,5.3569,5.351,5.3487,5.3415,5.3361,5.334,5.333,5.3305,5.3363,5.3338,5.34,5.3423,5.3443,5.3452,5.3478,5.3504,5.3232,5.3232,5.3231,0,0,5.3945,5.3876,5.3882,5.3822,5.3774,5.3772,5.3638,5.3642,5.3639,5.3487,5.35,5.3446,5.3377,5.3416,5.3429,5.3376,5.3522,5.3457,5.3473,5.3471,5.3492,5.3518,5.3541,5.3239,5.3238,5.3236,0,0,5.4117,5.4066,5.4101,5.4056,5.3986,5.3913,5.3922,5.3827,5.3785,5.3797,5.3683,5.3677,5.3646,5.3601,5.3575,5.3733,5.3645,5.3728,5.3849,5.3876,5.3897,5.3916,5.397,5.3992,5.3738,5.3739,5.3739,0,5.4244,5.4238,5.4129,5.414,5.4117,5.3982,5.4016,5.3978,5.3903,5.389,5.3831,5.3789,5.3733,5.3759,5.3798,5.3782,5.3787,5.3737,5.3903,5.3921,5.3936,5.3987,5.4008,5.3749,5.3748,5.3747,5.3746,0,5.4396,5.4394,5.4431,5.4364,5.4345,5.4368,5.4262,5.4256,5.4184,5.4117,5.4131,5.406,5.4018,5.4019,5.3948,5.4035,5.4004,5.3927,5.3823,5.3974,5.402,5.4038,5.3764,5.376,5.3757,5.3755,0,0,5.4678,5.4552,5.4567,5.4535,5.4448,5.4444,5.4461,5.4422,5.4419,5.4372,5.4382,5.436,5.4288,5.4258,5.4181,5.4205,5.4333,5.4124,5.412,5.4164,5.4424,5.4481,5.4506,5.4276,5.428,5.4282,5.4429,0,5.4832,5.4855,5.4758,5.4805,5.4802,5.4674,5.4689,5.4637,5.4576,5.4563,5.4494,5.448,5.4387,5.4368,5.4387,5.4314,5.4384,5.4302,5.4282,5.4283,5.4302,5.453,5.459,5.4732,5.4446,5.4449,5.4452,0,5.5014,5.4979,5.5027,5.4938,5.4932,5.4948,5.4904,5.4894,5.4833,5.4786,5.4755,5.4666,5.4676,5.4579,5.4589,5.4536,5.4523,5.4486,5.4489,5.4481,5.4375,5.4526,5.4775,5.4796,5.4479,5.4477,5.4475,0,5.5213,5.5178,5.5201,5.5178,5.5076,5.5089,5.5047,5.4981,5.4964,5.4926,5.4913,5.4877,5.4856,5.483,5.4734,5.4672,5.4755,5.465,5.4715,5.4718,5.4736,5.4736,5.4985,5.4732,5.4732,5.4731,5.4731,0,5.5393,5.5427,5.5289,5.5304,5.5338,5.5227,5.5263,5.5208,5.5151,5.5152,5.504,5.5043,5.4917,5.4906,5.4831,5.485,5.4842,5.4804,5.4783,5.4813,5.4817,5.48,5.4787,5.4737,5.4735,5.4734,5.4733,0,5.562,5.553,5.5547,5.545,5.5426,5.5455,5.5371,5.538,5.5313,5.5315,5.5309,5.5203,5.5184,5.5087,5.5045,5.4994,5.5039,5.4999,5.5061,5.5047,5.5116,5.5111,5.5361,5.5387,5.5121,5.5124,5.5126,0,5.574,5.5763,5.5669,5.5663,5.5626,5.5617,5.5599,5.5491,5.5477,5.541,5.5427,5.54,5.5371,5.5347,5.5265,5.5233,5.519,5.528,5.5184,5.5213,5.5189,5.5188,5.5189,5.53,5.5303,5.5306,5.5308,0,5.5963,5.5917,5.5896,5.5861,5.5844,5.581,5.577,5.5771,5.5651,5.5641,5.5621,5.56,5.5558,5.5532,5.5486,5.544,5.5354,5.534,5.5353,5.5382,5.5416,5.5397,5.5114,5.5334,5.5331,5.5329,5.5328,5.5327,5.6138,5.6152,5.6089,5.607,5.6029,5.5994,5.5998,5.5932,5.5914,5.5872,5.581,5.5799,5.5737,5.5666,5.5628,5.5617,5.5568,5.5587,5.5592,5.5598,5.5612,5.542,5.5608,5.5608,5.5607,5.5606,5.5605,0,5.6353,5.6306,5.629,5.6238,5.6223,5.6147,5.6098,5.6091,5.6083,5.6033,5.6009,5.5986,5.596,5.5878,5.5844,5.5851,5.581,5.5845,5.5842,5.5833,5.5659,5.565,5.5878,5.5878,5.5878,5.5878,5.5878,5.5878,5.6463,5.6483,5.6431,5.643,5.6382,5.6371,5.635,5.6318,5.6277,5.6258,5.6237,5.6184,5.6121,5.6081,5.6054,5.603,5.6022,5.607,5.6033,5.5871,5.5845,5.582,5.5811,5.6069,5.607,5.6207,5.6209,5.621]}]]